Flag for Canada Weather past 2 weeks in Markham, Ontario, Canada

Now
59 °F

Scattered showers. Fog.


Feels Like: 58 °F
Forecast: 59 / 70 °F
Wind: 7 mph from East

Location: Toronto Buttonville

Current Time: Oct 2, 2014 at 12:11:37 PM

Latest Report: Oct 2, 2014 at 11:00 AM


Visibility: 1 mi

Pressure: 30.11 "Hg

Humidity: 100%

Dew point: 59 °F

Location of MarkhamLocation

Historic Weather in Markham — Graph

°F

Markham temperature yesterday

Maximum temperature yesterday: 61 °F (at 12:00 AM)
Minimum temperature yesterday: 57 °F (at 6:00 AM)
Average temperature yesterday: 59 °F

Past Weeks' High & Low Weather Summary

 TemperatureHumidityPressure
High79 °F (Sep 27, 4:00 PM)100% (Sep 18, 4:00 AM)30.53 "Hg (Sep 18, 4:00 AM)
Low37 °F (Sep 19, 6:00 AM)42% (Sep 27, 5:00 PM)29.52 "Hg (Sep 21, 11:00 AM)
Average59 °F78%30.13 "Hg
* Reported Sep 17 11:00 AM — Oct 2 11:00 AM, Markham, Weather by CustomWeather, © 2014

Note: Actual official high and low records may vary slightly from our data, if they occured in-between our weather recording intervals... More about our weather records

Advertising

Markham weather history for previous 24 hours

 ConditionsComfort  
Time TempWeatherWind HumidityBarometerVisibility
11:00 AM
Oct 2
59 °FScattered showers. Fog.7 mph100%30.11 "Hg1 mi
10:00 AM61 °FFog.5 mph88%30.12 "Hg5 mi
9:00 AM59 °FFog.6 mph94%30.11 "Hg3 mi
8:00 AM59 °FFog.3 mph94%30.11 "Hg3 mi
7:00 AM59 °FFog.3 mph94%30.10 "Hg5 mi
6:00 AM59 °FLow clouds.5 mph94%30.09 "Hg8 mi
5:00 AM59 °FLow clouds.5 mph94%30.10 "Hg8 mi
4:00 AM59 °FLow clouds.6 mph94%30.09 "Hg8 mi
3:00 AM59 °FLow clouds.2 mph94%30.11 "Hg8 mi
2:00 AM59 °FLow clouds.2 mph94%30.10 "Hg8 mi
1:00 AM59 °FLow clouds.3 mph94%30.10 "Hg8 mi
12:00 AM59 °FLow clouds.5 mph94%30.11 "Hg8 mi
11:00 PM
Oct 1
57 °FPassing clouds.No wind94%30.11 "Hg8 mi
10:00 PM59 °FFog.3 mph94%30.10 "Hg5 mi
9:00 PM59 °FFog.5 mph94%30.09 "Hg5 mi
8:00 PM59 °FFog.5 mph94%30.09 "Hg5 mi
7:00 PM59 °FFog.5 mph94%30.09 "Hg5 mi
6:00 PM61 °FFog.3 mph88%30.08 "Hg5 mi
5:00 PM61 °FFog.5 mph88%30.09 "Hg3 mi
4:00 PM59 °FFog.3 mph94%30.09 "Hg5 mi
3:00 PM59 °FFog.3 mph94%30.09 "Hg5 mi
2:00 PM59 °FFog.7 mph94%30.10 "Hg3 mi
1:00 PM59 °FFog.8 mph94%30.10 "Hg6 mi
12:00 PM59 °FFog.5 mph94%30.11 "Hg6 mi
Weather by CustomWeather, © 2014

See weather overviewHow to use our weather pages